Skip Page Navigation
NASA JPL Caltech
NASA Logo - Jet Propulsion Laboratory + View the NASA Portal
+ Center for Near-Earth Object Studies
JPL Home Earth Solar System Stars & Galaxies Technology
JPL Solar System Dynamics
BODIES ORBITS EPHEMERIDES TOOLS PHYSICAL DATA DISCOVERY FAQ SITE MAP
IMPORTANT: The SSD Announcement email list is now available. Major changes are coming in the near future, including possible hostname and/or URL changes. To be notified of such changes, subscribe to this email list.

Please visit this page for more details.


JPL Small-Body Database Browser
Search: [ help ]  
300024 (2006 UZ91)
Classification: Main-belt Asteroid          SPK-ID: 2300024
Ephemeris | Orbit Diagram | Orbital Elements | Mission Design | Physical Parameters | Discovery Circumstances | Close-Approach Data ]

[ show orbit diagram ]
Orbital Elements at Epoch 2459000.5 (2020-May-31.0) TDB
Reference: JPL 7 (heliocentric ecliptic J2000)
 Element Value Uncertainty (1-sigma)   Units 
e .2413720322738931 6.1027e-08  
a 2.997720552706594 2.9305e-08 au
q 2.274154650710586 1.9181e-07 au
i 1.362994605850498 7.5703e-06 deg
node 135.3792105861517 0.00027573 deg
peri 235.294324220299 0.00027643 deg
M 236.5891626997296 1.857e-05 deg
tp 2459650.384147170853
(2022-Mar-11.88414717)
0.00010435 TDB
period 1895.76781180298
5.19
2.7799e-05
7.611e-08
d
yr
n .1898966728724127 2.7846e-09 deg/d
Q 3.721286454702603 3.6379e-08 au
  Orbit Determination Parameters
   # obs. used (total)      194  
   data-arc span      6733 days (18.43 yr)  
   first obs. used      2001-11-20  
   last obs. used      2020-04-27  
   planetary ephem.      DE431  
   SB-pert. ephem.      SB431-N16  
   condition code      0  
   norm. resid. RMS      .60212  
   source      ORB  
   producer      Otto Matic  
   solution date      2020-May-21 19:30:54  

Additional Information
 Earth MOID = 1.27434 au 
 Jupiter MOID = 1.74156 au 
 T_jup = 3.209 
[ show covariance matrix ]

Ephemeris | Orbit Diagram | Orbital Elements | Mission Design | Physical Parameters | Discovery Circumstances | Close-Approach Data ]

Physical Parameter Table
Parameter Symbol Value Units Sigma Reference Notes
absolute magnitude H 16.6   n/a MPO433933  

300024 (2006 UZ91)          Discovered 2006-Oct-18 by Spacewatch at Kitt Peak
Reference: 20111012/Numbers.arcLast Updated: 2011-10-13

[ show close-approach data ]
Alternate Designations
 2006 UZ91 = 2001 WE81 
Ephemeris | Orbit Diagram | Orbital Elements | Mission Design | Physical Parameters | Discovery Circumstances | Close-Approach Data ]
ABOUT SSD CREDITS/AWARDS PRIVACY/COPYRIGHT GLOSSARY LINKS
FirstGov 2020-May-29 19:26 UT
(server date/time)  
NASA Home Page
Site Manager:   Ryan S. Park
Webmaster  Alan B. Chamberlin